F4ETJ-1 Weather Reports


time (UTC)temp
C
wind
direction
speed
KPH
gust
KPH
rain 1hr
cm
rain 24hr
cm
rain mn
cm
humidity
%
barometer
mb
20260507140508 21 174 3.2 6.4 0.00 0.00 0.00 47 1010.2
20260507135908 21 201 3.2 12.9 0.00 0.00 0.00 44 1010.3
20260507134707 20 239 1.6 6.4 0.00 0.00 0.00 49 1010.5
20260507133506 20 329 3.2 9.7 0.00 0.00 0.00 57 1010.7
20260507132307 19 96 1.6 6.4 0.00 0.00 0.00 54 1010.7
20260507131707 20 149 1.6 3.2 0.00 0.00 0.00 56 1010.7
20260507130505 19 124 4.8 9.7 0.00 0.00 0.00 55 1010.8
20260507124103 20 59 1.6 3.2 0.00 0.00 0.00 61 1011.0
20260507122903 18 33 3.2 6.4 0.00 0.00 0.00 58 1011.1
20260507121102 18 31 4.8 9.7 0.00 0.00 0.00 60 1011.2
20260507120502 18 34 3.2 8.0 0.00 0.00 0.00 63 1011.2
20260507113500 19 119 3.2 9.7 0.00 0.00 0.00 60 1011.4
20260507111701 18 122 4.8 12.9 0.00 0.00 0.00 60 1011.6
20260507111058 18 181 4.8 8.0 0.00 0.00 0.00 60 1011.7
20260507105858 18 113 3.2 6.4 0.00 0.00 0.00 60 1011.9
20260507104657 18 103 4.8 11.3 0.00 0.00 0.00 62 1011.9
20260507104057 18 78 3.2 11.3 0.00 0.00 0.00 62 1012.0
20260507103456 18 118 3.2 6.4 0.00 0.00 0.00 63 1012.0
20260507102856 17 56 3.2 8.0 0.00 0.00 0.00 63 1012.1
20260507102256 18 131 3.2 4.8 0.00 0.00 0.00 63 1012.1
20260507101655 17 24 3.2 6.4 0.00 0.00 0.00 64 1012.1
20260507101055 17 86 4.8 6.4 0.00 0.00 0.00 65 1012.1
20260507100455 17 30 4.8 9.7 0.00 0.00 0.00 66 1012.2
20260507095856 17 86 1.6 9.7 0.00 0.00 0.00 66 1012.2
20260507094654 17 72 4.8 9.7 0.00 0.00 0.00 67 1012.2
20260507091652 16 30 3.2 6.4 0.00 0.00 0.00 71 1012.0
20260507090453 16 213 1.6 6.4 0.00 0.00 0.00 68 1012.0
20260507085251 16 164 1.6 4.8 0.00 0.00 0.00 71 1012.1
20260507084050 16 280 0.0 3.2 0.00 0.00 0.00 74 1012.1
20260507082249 15 276 0.0 3.2 0.00 0.00 0.00 76 1012.1
20260507081048 15 268 1.6 6.4 0.00 0.00 0.00 79 1012.1
20260507075247 15 308 0.0 4.8 0.00 0.00 0.00 81 1012.1
20260507074047 14 76 1.6 6.4 0.00 0.00 0.00 82 1012.2
20260507071645 13 302 0.0 4.8 0.00 0.00 0.00 88 1012.1
20260507071045 13 272 0.0 1.6 0.00 0.00 0.00 91 1012.0
20260507070445 12 272 0.0 0.0 0.00 0.00 0.00 93 1012.0
20260507063442 11 272 0.0 3.2 0.00 0.00 0.00 95 1011.8
20260507062842 11 272 0.0 1.6 0.00 0.00 0.00 95 1011.8
20260507062242 11 272 0.0 1.6 0.00 0.00 0.00 95 1011.7
20260507061641 11 272 0.0 0.0 0.00 0.00 0.00 96 1011.7
20260507061040 11 272 0.0 0.0 0.00 0.00 0.00 95 1011.7
20260507060440 10 272 0.0 0.0 0.00 0.00 0.00 96 1011.8
20260507055840 10 272 0.0 0.0 0.00 0.00 0.00 95 1011.8
20260507055241 10 272 0.0 0.0 0.00 0.00 0.00 95 1011.8
20260507054639 10 272 0.0 0.0 0.00 0.00 0.00 95 1011.7
20260507054039 9 272 0.0 0.0 0.00 0.00 0.00 95 1011.7
20260507053438 9 272 0.0 0.0 0.00 0.00 0.00 95 1011.7
20260507052838 8 272 0.0 0.0 0.00 0.00 0.00 95 1011.6
20260507052238 8 272 0.0 0.0 0.00 0.00 0.00 95 1011.6
20260507051638 8 272 0.0 0.0 0.00 0.00 0.00 95 1011.6
20260507051037 8 272 0.0 0.0 0.00 0.00 0.00 95 1011.5
20260506232943 12 276 0.0 1.6 0.00 1.78 1.78 93 1011.8
20260506232342 12 276 0.0 0.0 0.00 1.78 1.78 93 1011.8
20260506231742 12 276 0.0 0.0 0.00 1.78 1.78 92 1011.8
20260506231141 12 276 1.6 3.2 0.00 1.78 1.78 92 1011.8
20260506230541 12 276 1.6 3.2 0.00 1.78 1.78 92 1011.8
20260506225941 12 276 1.6 3.2 0.00 1.78 1.78 92 1011.7
20260506225340 12 276 1.6 3.2 0.00 1.78 1.78 92 1011.7
20260506224740 12 276 0.0 3.2 0.00 1.78 1.78 92 1011.8
20260506224140 12 276 1.6 1.6 0.00 1.78 1.78 92 1011.7
20260506223540 12 276 1.6 3.2 0.00 1.78 1.78 92 1011.7
20260506222939 12 276 1.6 3.2 0.00 1.78 1.78 92 1011.7
20260506222339 12 276 0.0 3.2 0.00 1.78 1.78 91 1011.7
20260506221738 12 276 1.6 3.2 0.00 1.78 1.78 91 1011.7
20260506221138 12 276 1.6 3.2 0.00 1.78 1.78 91 1011.6
20260506220537 12 276 0.0 1.6 0.00 1.78 1.78 91 1011.6
20260506215937 12 276 0.0 3.2 0.00 1.78 1.78 91 1011.6
20260506215337 12 276 1.6 1.6 0.00 1.78 1.78 91 1011.6
20260506214737 12 276 1.6 1.6 0.00 1.78 1.78 91 1011.6
20260506214136 12 276 1.6 3.2 0.00 1.78 1.78 91 1011.5
20260506213536 12 276 0.0 1.6 0.00 1.78 1.78 90 1011.5
20260506212936 12 276 1.6 1.6 0.00 1.78 1.78 90 1011.5
20260506212336 12 276 0.0 3.2 0.00 1.78 1.78 90 1011.6
20260506211735 12 276 0.0 1.6 0.00 1.78 1.78 90 1011.5
20260506211135 12 276 0.0 1.6 0.00 1.78 1.78 90 1011.5
20260506210534 12 276 0.0 3.2 0.00 1.78 1.78 90 1011.5
20260506205934 12 276 0.0 1.6 0.00 1.78 1.78 90 1011.5
20260506205334 12 276 0.0 3.2 0.00 1.78 1.78 90 1011.4
20260506204734 12 276 0.0 0.0 0.00 1.78 1.78 90 1011.4
20260506204133 12 276 1.6 3.2 0.00 1.78 1.78 90 1011.3
20260506203533 12 276 1.6 3.2 0.00 1.78 1.78 89 1011.3
20260506202932 12 276 3.2 3.2 0.00 1.78 1.78 89 1011.2
20260506202332 12 276 1.6 4.8 0.00 1.78 1.78 89 1011.2
20260506201732 12 276 1.6 3.2 0.00 1.78 1.78 89 1011.0
20260506201131 12 276 1.6 1.6 0.00 1.78 1.78 89 1011.0
20260506200531 12 276 1.6 3.2 0.00 1.78 1.78 89 1010.9
20260506195930 12 276 1.6 3.2 0.00 1.78 1.78 89 1010.8
20260506195330 12 276 1.6 1.6 0.00 1.78 1.78 89 1010.8
20260506194730 12 276 1.6 3.2 0.00 1.78 1.78 89 1010.7
20260506194129 12 276 1.6 3.2 0.00 1.78 1.78 88 1010.5
20260506193529 12 276 1.6 4.8 0.00 1.78 1.78 88 1010.5
20260506192929 12 276 3.2 4.8 0.00 1.78 1.78 88 1010.4
20260506192329 12 276 3.2 4.8 0.00 1.78 1.78 88 1010.4
20260506191728 12 276 3.2 4.8 0.00 1.78 1.78 88 1010.4
20260506191128 13 273 3.2 6.4 0.00 1.78 1.78 88 1010.3
20260506190527 13 274 3.2 6.4 0.00 1.78 1.78 87 1010.2
20260506185927 13 292 3.2 8.0 0.00 1.78 1.78 87 1010.2
20260506185327 13 303 3.2 6.4 0.00 1.78 1.78 87 1010.1
20260506184727 13 304 4.8 4.8 0.00 1.78 1.78 87 1010.0
20260506184126 13 298 6.4 11.3 0.00 1.78 1.78 86 1009.9
20260506183526 13 295 6.4 12.9 0.00 1.78 1.78 86 1009.9
20260506182926 13 295 6.4 11.3 0.00 1.78 1.78 86 1009.9
20260506182325 13 298 6.4 12.9 0.00 1.78 1.78 86 1009.8
20260506181725 13 297 4.8 14.5 0.00 1.78 1.78 86 1009.8
20260506181124 13 281 6.4 11.3 0.00 1.78 1.78 86 1009.7
20260506180524 13 269 9.7 14.5 0.00 1.78 1.78 86 1009.8
20260506175924 13 295 9.7 19.3 0.00 1.78 1.78 86 1009.7
20260506175323 13 309 8.0 14.5 0.00 1.78 1.78 86 1009.6
20260506174723 13 307 6.4 14.5 0.00 1.78 1.78 86 1009.5
20260506174122 13 297 8.0 12.9 0.00 1.78 1.78 86 1009.4
20260506173522 13 271 8.0 12.9 0.00 1.78 1.78 86 1009.4
20260506172922 13 282 4.8 14.5 0.00 1.78 1.78 86 1009.3
20260506172321 13 284 4.8 9.7 0.00 1.78 1.78 86 1009.3
20260506171721 13 279 4.8 11.3 0.00 1.78 1.78 86 1009.3
20260506171121 13 278 4.8 9.7 0.00 1.78 1.78 86 1009.2
20260506170520 13 279 4.8 6.4 0.00 1.78 1.78 86 1009.2
20260506165920 13 286 6.4 9.7 0.00 1.78 1.78 85 1009.2
20260506165320 13 297 6.4 14.5 0.00 1.78 1.78 85 1009.1
20260506164719 13 301 4.8 8.0 0.00 1.78 1.78 86 1009.1
20260506164119 13 284 3.2 8.0 0.00 1.78 1.78 87 1009.1
20260506163519 13 303 4.8 8.0 0.00 1.78 1.78 87 1009.0
20260506162918 13 297 4.8 9.7 0.00 1.78 1.78 87 1009.0
20260506162318 13 309 6.4 11.3 0.00 1.78 1.78 87 1008.9
20260506161718 13 290 6.4 11.3 0.00 1.78 1.78 87 1008.9
20260506161118 13 289 6.4 12.9 0.00 1.78 1.78 87 1008.9
20260506160517 13 285 8.0 16.1 0.03 1.78 1.78 86 1009.0
20260506155917 13 293 9.7 16.1 0.03 1.78 1.78 86 1008.9
20260506155316 13 291 11.3 20.9 0.03 1.78 1.78 85 1008.9
20260506154716 14 344 9.7 16.1 0.03 1.78 1.78 85 1008.8
20260506154116 14 301 9.7 17.7 0.05 1.78 1.78 86 1008.8
20260506153515 13 326 6.4 12.9 0.05 1.78 1.78 87 1008.8
20260506152915 13 311 4.8 8.0 0.05 1.78 1.78 89 1008.8
20260506152315 13 326 4.8 8.0 0.05 1.78 1.78 89 1008.7
20260506151714 13 305 4.8 11.3 0.08 1.78 1.78 89 1008.7
20260506151114 13 297 4.8 9.7 0.10 1.78 1.78 89 1008.6
20260506150514 13 325 4.8 9.7 0.10 1.75 1.75 89 1008.6
20260506145913 13 320 4.8 11.3 0.10 1.75 1.75 90 1008.6
20260506145313 13 297 1.6 9.7 0.10 1.75 1.75 91 1008.7
20260506144713 13 24 0.0 1.6 0.10 1.75 1.75 91 1008.6
20260506144112 13 24 0.0 3.2 0.13 1.73 1.73 91 1008.6
20260506143512 13 22 0.0 1.6 0.23 1.73 1.73 91 1008.6
20260506142912 13 19 1.6 6.4 0.25 1.73 1.73 90 1008.7
20260506142311 13 315 1.6 4.8 0.41 1.73 1.73 91 1008.6
20260506141711 13 45 1.6 3.2 0.51 1.70 1.70 91 1008.6
20260506141111 13 51 0.0 3.2 0.48 1.68 1.68 91 1008.5